Weather History for Brownsville, TX

Change the Weather History Date:

Saturday, February 22, 2014

  Actual Average Record
Temperature  
Mean Temperature 68 °F 65 °F  
Max Temperature 80 °F 75 °F 87 °F (1909)
Min Temperature 55 °F 56 °F 27 °F (1894)
Degree Days  
Heating Degree Days 0 3  
Month to date heating degree days 148 89  
Since 1 July heating degree days 706 488  
Cooling Degree Days 3 3  
Month to date cooling degree days 68 61  
Year to date cooling degree days 89 120  
Growing Degree Days 20 (Base 50)    
Moisture  
Dew Point 65 °F    
Average Humidity 84    
Maximum Humidity 100    
Minimum Humidity 67    
Precipitation  
Precipitation 0.00 in 0.02 in 2.68 in (1958)
Month to date precipitation 0.08 0.88  
Year to date precipitation 0.76 2.15  
Sea Level Pressure  
Sea Level Pressure 29.92 in    
Wind  
Wind Speed 8 mph (ESE)    
Max Wind Speed 16 mph    
Max Gust Speed 23 mph    
Visibility 9 miles    
Events      
T = Trace of Precipitation, MM = Missing Value Source: NWS Daily Summary

Daily Weather History Graph

Daily Weather History Graph

Search for Another Location

Airport:

Trip Planner

Search our weather history database for the weather conditions in past years. The results will help you decide how hot, cold, wet, or windy it might be!

Date:

Astronomy

Feb. 22, 2014 Rise Set
Actual Time 6:59 AM CST 6:27 PM CST
Civil Twilight 6:35 AM CST 6:50 PM CST
Nautical Twilight 6:09 AM CST 7:17 PM CST
Astronomical Twilight 5:42 AM CST 7:44 PM CST
Moon 12:42 AM CST (2/22) 11:54 AM CST (2/22)
Length of Visible Light 12h 14m
Length of Day
11h 28m
Waning Gibbous, 50% of the Moon is Illuminated
Feb 22
Waning Gibbous
Mar 1
New
Mar 8
First Quarter
Mar 16
Full
Mar 23
Last Quarter

Hourly Weather History & Observations

Time (CST) Temp. Dew Point Humidity Pressure Visibility Wind Dir Wind Speed Gust Speed Precip Events Conditions
12:53 AM 55.9 °F 54.0 °F 93% 30.02 in 10.0 mi Calm Calm - N/A   Clear
1:53 AM 55.9 °F 54.0 °F 93% 30.00 in 10.0 mi Calm Calm - N/A   Clear
2:53 AM 55.9 °F 55.0 °F 97% 29.99 in 10.0 mi Calm Calm - N/A   Scattered Clouds
3:53 AM 59.0 °F 57.0 °F 93% 29.96 in 10.0 mi ENE 3.5 mph - N/A   Overcast
4:14 AM 60.8 °F 57.2 °F 88% 29.96 in 10.0 mi ENE 4.6 mph - N/A   Overcast
4:53 AM 61.0 °F 59.0 °F 93% 29.95 in 10.0 mi East 5.8 mph - N/A   Overcast
5:37 AM 60.8 °F 59.0 °F 94% 29.96 in 10.0 mi East 5.8 mph - N/A   Overcast
5:53 AM 61.0 °F 59.0 °F 93% 29.96 in 10.0 mi East 6.9 mph - N/A   Overcast
6:09 AM 62.6 °F 60.8 °F 94% 29.96 in 10.0 mi East 6.9 mph - N/A   Overcast
6:53 AM 64.0 °F 61.0 °F 90% 29.96 in 10.0 mi East 5.8 mph - N/A   Overcast
7:53 AM 64.9 °F 62.1 °F 90% 29.97 in 10.0 mi East 8.1 mph - N/A   Overcast
8:53 AM 68.0 °F 64.0 °F 87% 29.99 in 10.0 mi East 8.1 mph - N/A   Overcast
9:53 AM 70.0 °F 64.9 °F 84% 29.99 in 10.0 mi ESE 8.1 mph - N/A   Overcast
10:44 AM 71.6 °F 64.4 °F 78% 29.98 in 10.0 mi ESE 9.2 mph - N/A   Overcast
10:53 AM 72.0 °F 66.0 °F 81% 29.98 in 10.0 mi ESE 9.2 mph - N/A   Overcast
11:13 AM 73.4 °F 66.2 °F 78% 29.98 in 10.0 mi ESE 11.5 mph - N/A   Overcast
11:29 AM 73.4 °F 66.2 °F 78% 29.97 in 10.0 mi ESE 10.4 mph - N/A   Overcast
11:50 AM 75.2 °F 66.2 °F 73% 29.96 in 10.0 mi SE 10.4 mph - N/A   Overcast
11:53 AM 73.9 °F 66.0 °F 76% 29.96 in 10.0 mi SE 12.7 mph - N/A   Overcast
12:53 PM 78.1 °F 66.0 °F 66% 29.92 in 10.0 mi SE 13.8 mph - N/A   Mostly Cloudy
1:21 PM 78.8 °F 66.2 °F 65% 29.91 in 10.0 mi SE 13.8 mph - N/A   Overcast
1:34 PM 77.0 °F 66.2 °F 69% 29.90 in 10.0 mi SE 13.8 mph - N/A   Overcast
1:53 PM 77.0 °F 66.0 °F 69% 29.89 in 10.0 mi SE 12.7 mph - N/A   Mostly Cloudy
2:20 PM 78.8 °F 66.2 °F 65% 29.88 in 10.0 mi SSE 10.4 mph - N/A   Mostly Cloudy
2:44 PM 77.0 °F 66.2 °F 69% 29.88 in 10.0 mi SE 15.0 mph 19.6 mph N/A   Mostly Cloudy
2:53 PM 75.9 °F 66.9 °F 74% 29.87 in 10.0 mi SE 11.5 mph - N/A   Overcast
3:53 PM 75.0 °F 68.0 °F 79% 29.87 in 10.0 mi SE 10.4 mph - N/A   Overcast
4:53 PM 73.9 °F 68.0 °F 82% 29.87 in 10.0 mi ESE 10.4 mph - N/A   Overcast
5:11 PM 73.4 °F 68.0 °F 83% 29.87 in 10.0 mi ESE 11.5 mph - N/A   Overcast
5:53 PM 73.0 °F 69.1 °F 87% 29.86 in 10.0 mi ESE 8.1 mph - N/A   Overcast
6:34 PM 71.6 °F 68.0 °F 88% 29.86 in 10.0 mi ESE 8.1 mph - N/A   Overcast
6:53 PM 72.0 °F 69.1 °F 91% 29.86 in 10.0 mi ESE 5.8 mph - N/A   Overcast
7:06 PM 71.6 °F 69.8 °F 94% 29.86 in 10.0 mi ESE 6.9 mph - N/A   Overcast
7:53 PM 70.0 °F 69.1 °F 97% 29.87 in 10.0 mi ESE 8.1 mph - N/A   Overcast
8:06 PM 69.8 °F 69.8 °F 100% 29.88 in 8.0 mi ESE 6.9 mph - N/A   Overcast
8:53 PM 70.0 °F 69.1 °F 97% 29.89 in 7.0 mi ESE 5.8 mph - N/A   Overcast
9:32 PM 69.8 °F 69.8 °F 100% 29.89 in 2.0 mi ESE 5.8 mph - N/A   Overcast
9:43 PM 69.8 °F 69.8 °F 100% 29.89 in 4.0 mi SE 9.2 mph - N/A   Overcast
9:53 PM 70.0 °F 69.1 °F 97% 29.90 in 2.5 mi SE 6.9 mph - N/A   Overcast
10:05 PM 69.8 °F 69.8 °F 100% 29.90 in 1.5 mi SE 8.1 mph - N/A   Overcast
10:49 PM 69.8 °F 69.8 °F 100% 29.90 in 2.5 mi SE 9.2 mph - N/A   Overcast
10:53 PM 70.0 °F 70.0 °F 100% 29.90 in 3.0 mi SSE 8.1 mph - N/A   Overcast
11:53 PM 71.1 °F 70.0 °F 96% 29.89 in 5.0 mi SSE 11.5 mph - N/A   Overcast